CZ-4C R/B

Satellite information

Favourite Embed

Satellite Type and Status

ROCKET BODYIN ORBIT

Key statistics

Satellite CZ-4C R/B at a glance.

Uptime

1348

Days in orbit

Revolutions

≈ 14.7

Per day

Orbit

SSO

Sun Synchronous Orbit

Inclination

98.3

Latest

Satellite identification and parameters

Extended collection of information and parameters for CZ-4C R/B.

Object identification

Identified? True

Debris? False

Object name: CZ-4C R/B

International designator: 2022-035B

Object number (NORAD): 52201

Object ID (CCSDS): 52201

Country: PEOPLES REPUBLIC OF CHINA (PRC)

Current information (Y/N): Y

RCS size: LARGE

Orbital parameters

Period: 97.688 minutes

Inclination: 98.2579 deg

SMA: 7026.186 km

Apoapsis: 722.679 km

Periapsis: 573.424 km

RAAN: 45.8429 deg

Eccentricy: 0.01062134

Argument of periapsis: 110.0142 deg

Mean anomaly: 251.2539 deg

Mean motion: 14.74087539 rev/day

Mean motion (dot): 0.0000137 rev/day2

B* drag term: 0.00019815853 1/REarth

Two-line elements (TLE)

Creation date: Dec. 12, 2025, 10:14 a.m.

Reference frame: TEME

Reference center: EARTH

Epoch: Dec. 12, 2025, 3:48 a.m. UTC

TLE line 0: 0 CZ-4C R/B

TLE line 1: 1 52201U 22035B 25346.15846041 .00001370 00000-0 19816-3 0 9990

TLE line 2: 2 52201 98.2579 45.8429 0106213 110.0142 251.2539 14.74087539197895

Live tracking on map

Real-time ground track for satellite CZ-4C R/B.

In-orbit conjunctions

A list of the most updated potential collisions computed for object CZ-4C R/B.

Target Orbit TCA Probability of collision Miss distance Type
FENGYUN 1C DEB SSO 2024-06-21 12:41:43 0.0004719163 113.0 (m) DEBRIS

Associated space launch

Gaofen (GF) is a series of Chinese civilian remote sensing satellites for the state-sponsored program China High-definition Earth Observation System (CHEOS). GF 3 features a multi-polarized C-band SAR at meter-level resolution, with designed lifespan of 8 years. The satellite is based on the CS-L3000B bus.

CZ-4C R/B was lifted into orbit during the mission ‘Long March 4C | Gaofen-3 03’, on board a Long March 4C space rocket.

The launch took place on April 6, 2022, 11:47 p.m. from Launch Area 94 (SLS-2 / 603).

For more information about the launch, click the button.

Launch to space Long March 4C | Gaofen-3 03
Long March 4C | Gaofen-3 03

Agency: N/A

Status: Launch Successful

Launch date: April 6, 2022, 11:47 p.m. UTC

Rocket: Long March 4C

Launch pad: Launch Area 94 (SLS-2 / 603)

Location: Jiuquan Satellite Launch Center, People's Republic of China

...

Latest news about this satellite

There are no fresh news available about this satellite. Check back as we update our databases every day.


Newsletter sign-up

Weekly statistics, charts and insights to help you stay on top of the space industry.